| time (UTC) | temp C | wind direction | speed KPH | gust KPH | rain 1hr cm | rain 24hr cm | rain mn cm | humidity % | barometer mb |
| 20260902123010 | 24 | 196 | 1.6 | 11.3 | 0.00 | 0.00 | 0.00 | 61 | 1010.9 |
| 20260902122008 | 24 | 124 | 3.2 | 12.9 | 0.00 | 0.00 | 0.00 | 59 | 1010.9 |
| 20260902121009 | 25 | 18 | 1.6 | 12.9 | 0.00 | 0.00 | 0.00 | 59 | 1011.1 |
| 20260902120008 | 25 | 194 | 3.2 | 6.4 | 0.00 | 0.00 | 0.00 | 62 | 1011.4 |
| 20260902115010 | 23 | 24 | 1.6 | 12.9 | 0.00 | 0.00 | 0.00 | 64 | 1011.6 |
| 20260902114011 | 23 | 358 | 3.2 | 12.9 | 0.00 | 0.00 | 0.00 | 63 | 1011.8 |
| 20260902113008 | 23 | 172 | 0.0 | 12.9 | 0.00 | 0.00 | 0.00 | 65 | 1012.0 |
| 20260902112008 | 23 | 223 | 0.0 | 11.3 | 0.00 | 0.00 | 0.00 | 63 | 1012.0 |
| 20260902111008 | 23 | 208 | 4.8 | 12.9 | 0.00 | 0.00 | 0.00 | 62 | 1012.4 |
| 20260902110009 | 23 | 237 | 4.8 | 12.9 | 0.00 | 0.00 | 0.00 | 63 | 1012.5 |
| 20260902105007 | 23 | 330 | 1.6 | 14.5 | 0.00 | 0.00 | 0.00 | 64 | 1012.7 |
| 20260902104011 | 22 | 334 | 1.6 | 12.9 | 0.00 | 0.00 | 0.00 | 66 | 1012.9 |
| 20260902103008 | 23 | 15 | 3.2 | 11.3 | 0.00 | 0.00 | 0.00 | 66 | 1013.0 |
| 20260902102008 | 23 | 238 | 0.0 | 6.4 | 0.00 | 0.00 | 0.00 | 71 | 1012.9 |
| 20260902101010 | 23 | 224 | 1.6 | 6.4 | 0.00 | 0.00 | 0.00 | 71 | 1013.2 |
| 20260902100011 | 22 | 7 | 3.2 | 9.7 | 0.00 | 0.00 | 0.00 | 70 | 1013.3 |
| 20260902095010 | 22 | 339 | 0.0 | 11.3 | 0.00 | 0.00 | 0.00 | 70 | 1013.7 |
| 20260902094009 | 23 | 342 | 3.2 | 8.0 | 0.00 | 0.00 | 0.00 | 67 | 1013.6 |
| 20260902093009 | 24 | 277 | 0.0 | 3.2 | 0.00 | 0.00 | 0.00 | 71 | 1014.1 |
| 20260902092009 | 23 | 29 | 0.0 | 3.2 | 0.00 | 0.00 | 0.00 | 72 | 1014.1 |
| 20260902091009 | 25 | 9 | 0.0 | 3.2 | 0.00 | 0.00 | 0.00 | 72 | 1014.6 |
| 20260902090010 | 25 | 58 | 0.0 | 3.2 | 0.00 | 0.00 | 0.00 | 76 | 1014.7 |
| 20260902085009 | 25 | 75 | 0.0 | 3.2 | 0.00 | 0.00 | 0.00 | 80 | 1015.0 |
| 20260902084010 | 25 | 124 | 0.0 | 3.2 | 0.00 | 0.00 | 0.00 | 84 | 1015.1 |
| 20260902083009 | 24 | 77 | 0.0 | 3.2 | 0.00 | 0.00 | 0.00 | 86 | 1015.4 |
| 20260902082009 | 24 | 63 | 0.0 | 3.2 | 0.00 | 0.00 | 0.00 | 91 | 1015.6 |
| 20260902081009 | 23 | 123 | 0.0 | 3.2 | 0.00 | 0.00 | 0.00 | 97 | 1015.7 |
| 20260902080010 | 22 | 218 | 0.0 | 4.8 | 0.00 | 0.00 | 0.00 | 99 | 1015.8 |
| 20260902075010 | 22 | 24 | 0.0 | 1.6 | 0.00 | 0.00 | 0.00 | 99 | 1015.7 |
| 20260902074009 | 21 | 23 | 0.0 | 3.2 | 0.00 | 0.00 | 0.00 | 99 | 1015.8 |
| 20260902073009 | 18 | 348 | 0.0 | 4.8 | 0.00 | 0.00 | 0.00 | 99 | 1016.0 |
| 20260902072009 | 15 | 45 | 0.0 | 1.6 | 0.00 | 0.00 | 0.00 | 99 | 1016.1 |
| 20260902071008 | 14 | 0 | 0.0 | 0.0 | 0.00 | 0.00 | 0.00 | 99 | 1016.0 |
| 20260902070010 | 14 | 124 | 0.0 | 3.2 | 0.00 | 0.00 | 0.00 | 99 | 1016.1 |
| 20260902065009 | 13 | 45 | 0.0 | 3.2 | 0.00 | 0.00 | 0.00 | 99 | 1016.0 |
| 20260902064009 | 12 | 45 | 0.0 | 3.2 | 0.00 | 0.00 | 0.00 | 99 | 1016.0 |
| 20260902063008 | 12 | 0 | 0.0 | 0.0 | 0.00 | 0.00 | 0.00 | 99 | 1016.0 |
| 20260902062009 | 12 | 46 | 0.0 | 3.2 | 0.00 | 0.00 | 0.00 | 99 | 1015.8 |
| 20260902061010 | 11 | 0 | 0.0 | 0.0 | 0.00 | 0.00 | 0.00 | 99 | 1016.0 |
| 20260902060010 | 11 | 0 | 0.0 | 0.0 | 0.00 | 0.00 | 0.00 | 99 | 1016.0 |
| 20260902055008 | 10 | 0 | 0.0 | 0.0 | 0.00 | 0.00 | 0.00 | 99 | 1016.0 |
| 20260902054010 | 10 | 0 | 0.0 | 0.0 | 0.00 | 0.00 | 0.00 | 99 | 1016.0 |
| 20260902053009 | 10 | 0 | 0.0 | 0.0 | 0.00 | 0.00 | 0.00 | 99 | 1015.9 |
| 20260902052010 | 10 | 0 | 0.0 | 0.0 | 0.00 | 0.00 | 0.00 | 99 | 1015.8 |
| 20260902051009 | 9 | 0 | 0.0 | 0.0 | 0.00 | 0.00 | 0.00 | 99 | 1015.7 |
| 20260902050009 | 9 | 0 | 0.0 | 0.0 | 0.00 | 0.00 | 0.00 | 99 | 1015.7 |
| 20260902045009 | 9 | 0 | 0.0 | 0.0 | 0.00 | 0.00 | 0.00 | 99 | 1015.5 |
| 20260902044009 | 9 | 0 | 0.0 | 0.0 | 0.00 | 0.00 | 0.00 | 99 | 1015.4 |
| 20260902043009 | 10 | 0 | 0.0 | 0.0 | 0.00 | 0.00 | 0.00 | 99 | 1015.4 |
| 20260902042008 | 10 | 0 | 0.0 | 0.0 | 0.00 | 0.00 | 0.00 | 99 | 1015.4 |
| 20260902041008 | 10 | 0 | 0.0 | 0.0 | 0.00 | 0.00 | 0.00 | 99 | 1015.1 |
| 20260902040009 | 10 | 0 | 0.0 | 0.0 | 0.00 | 0.00 | 0.00 | 99 | 1015.2 |
| 20260902035010 | 10 | 0 | 0.0 | 0.0 | 0.00 | 0.00 | 0.00 | 99 | 1015.3 |
| 20260902034009 | 10 | 0 | 0.0 | 0.0 | 0.00 | 0.00 | 0.00 | 99 | 1015.4 |
| 20260902033011 | 10 | 0 | 0.0 | 0.0 | 0.00 | 0.00 | 0.00 | 99 | 1015.3 |
| 20260902032009 | 9 | 0 | 0.0 | 0.0 | 0.00 | 0.00 | 0.00 | 99 | 1015.5 |
| 20260902031009 | 9 | 0 | 0.0 | 0.0 | 0.00 | 0.00 | 0.00 | 99 | 1015.2 |
| 20260902030010 | 9 | 0 | 0.0 | 0.0 | 0.00 | 0.00 | 0.00 | 99 | 1015.2 |
| 20260902025009 | 9 | 0 | 0.0 | 0.0 | 0.00 | 0.00 | 0.00 | 99 | 1015.4 |
| 20260902024009 | 9 | 0 | 0.0 | 0.0 | 0.00 | 0.00 | 0.00 | 99 | 1015.6 |
| 20260902023010 | 9 | 0 | 0.0 | 0.0 | 0.00 | 0.00 | 0.00 | 99 | 1015.7 |
| 20260902022008 | 8 | 0 | 0.0 | 0.0 | 0.00 | 0.00 | 0.00 | 99 | 1015.6 |
| 20260902021009 | 9 | 0 | 0.0 | 0.0 | 0.00 | 0.00 | 0.00 | 99 | 1015.5 |
| 20260902020009 | 9 | 0 | 0.0 | 0.0 | 0.00 | 0.00 | 0.00 | 99 | 1015.4 |
| 20260902015009 | 9 | 0 | 0.0 | 0.0 | 0.00 | 0.00 | 0.00 | 99 | 1015.4 |
| 20260902014008 | 9 | 0 | 0.0 | 0.0 | 0.00 | 0.00 | 0.00 | 99 | 1015.3 |
| 20260902013010 | 9 | 0 | 0.0 | 0.0 | 0.00 | 0.00 | 0.00 | 99 | 1015.3 |
| 20260902012009 | 9 | 0 | 0.0 | 0.0 | 0.00 | 0.00 | 0.00 | 99 | 1015.2 |
| 20260902011009 | 10 | 0 | 0.0 | 0.0 | 0.00 | 0.00 | 0.00 | 99 | 1015.2 |
| 20260902010009 | 10 | 0 | 0.0 | 0.0 | 0.00 | 0.00 | 0.00 | 99 | 1015.3 |
| 20260902005010 | 10 | 0 | 0.0 | 0.0 | 0.00 | 0.00 | 0.00 | 99 | 1015.2 |
| 20260902004009 | 10 | 0 | 0.0 | 0.0 | 0.00 | 0.00 | 0.00 | 99 | 1015.1 |
| 20260902003008 | 10 | 0 | 0.0 | 0.0 | 0.00 | 0.00 | 0.00 | 99 | 1015.0 |
| 20260902002009 | 10 | 0 | 0.0 | 0.0 | 0.00 | 0.00 | 0.00 | 99 | 1015.0 |
| 20260902001009 | 10 | 0 | 0.0 | 0.0 | 0.00 | 0.00 | 0.00 | 99 | 1015.0 |
| 20260902000009 | 10 | 0 | 0.0 | 0.0 | 0.00 | 0.00 | 0.00 | 99 | 1015.1 |
| 20260901235008 | 10 | 0 | 0.0 | 0.0 | 0.00 | 0.00 | 0.00 | 99 | 1014.9 |
| 20260901234008 | 10 | 0 | 0.0 | 0.0 | 0.00 | 0.00 | 0.00 | 99 | 1014.8 |
| 20260901233008 | 10 | 0 | 0.0 | 0.0 | 0.00 | 0.00 | 0.00 | 99 | 1014.8 |
| 20260901232008 | 10 | 0 | 0.0 | 0.0 | 0.00 | 0.00 | 0.00 | 99 | 1014.7 |
| 20260901231008 | 10 | 0 | 0.0 | 0.0 | 0.00 | 0.00 | 0.00 | 99 | 1014.7 |
| 20260901230009 | 10 | 0 | 0.0 | 0.0 | 0.00 | 0.00 | 0.00 | 99 | 1014.7 |
| 20260901225009 | 10 | 0 | 0.0 | 0.0 | 0.00 | 0.00 | 0.00 | 99 | 1014.6 |
| 20260901224008 | 10 | 0 | 0.0 | 0.0 | 0.00 | 0.00 | 0.00 | 99 | 1014.7 |
| 20260901223008 | 11 | 0 | 0.0 | 0.0 | 0.00 | 0.00 | 0.00 | 99 | 1014.7 |
| 20260901222009 | 11 | 0 | 0.0 | 0.0 | 0.00 | 0.00 | 0.00 | 99 | 1014.6 |
| 20260901221009 | 11 | 0 | 0.0 | 0.0 | 0.00 | 0.00 | 0.00 | 99 | 1014.6 |
| 20260901220012 | 11 | 0 | 0.0 | 0.0 | 0.00 | 0.00 | 0.00 | 99 | 1014.7 |
| 20260901215010 | 11 | 0 | 0.0 | 0.0 | 0.00 | 0.00 | 0.00 | 99 | 1014.5 |
| 20260901214010 | 11 | 0 | 0.0 | 0.0 | 0.00 | 0.00 | 0.00 | 99 | 1014.5 |
| 20260901213010 | 11 | 0 | 0.0 | 0.0 | 0.00 | 0.00 | 0.00 | 99 | 1014.3 |
| 20260901212010 | 11 | 0 | 0.0 | 0.0 | 0.00 | 0.00 | 0.00 | 99 | 1014.2 |
| 20260901211010 | 11 | 0 | 0.0 | 0.0 | 0.00 | 0.00 | 0.00 | 99 | 1014.3 |
| 20260901210010 | 12 | 0 | 0.0 | 0.0 | 0.00 | 0.00 | 0.00 | 99 | 1014.0 |
| 20260901205010 | 12 | 0 | 0.0 | 0.0 | 0.00 | 0.00 | 0.00 | 99 | 1013.9 |
| 20260901204010 | 12 | 0 | 0.0 | 0.0 | 0.00 | 0.00 | 0.00 | 99 | 1013.8 |
| 20260901203010 | 12 | 0 | 0.0 | 0.0 | 0.00 | 0.00 | 0.00 | 99 | 1013.6 |
| 20260901202009 | 12 | 0 | 0.0 | 0.0 | 0.00 | 0.00 | 0.00 | 99 | 1013.6 |
| 20260901201010 | 12 | 0 | 0.0 | 0.0 | 0.00 | 0.00 | 0.00 | 99 | 1013.6 |
| 20260901200010 | 13 | 0 | 0.0 | 0.0 | 0.00 | 0.00 | 0.00 | 99 | 1013.5 |
| 20260901195009 | 13 | 0 | 0.0 | 0.0 | 0.00 | 0.00 | 0.00 | 99 | 1013.3 |
| 20260901194009 | 13 | 0 | 0.0 | 0.0 | 0.00 | 0.00 | 0.00 | 99 | 1013.2 |
| 20260901193010 | 13 | 0 | 0.0 | 0.0 | 0.00 | 0.00 | 0.00 | 99 | 1013.0 |
| 20260901192011 | 14 | 0 | 0.0 | 0.0 | 0.00 | 0.00 | 0.00 | 99 | 1013.0 |
| 20260901191010 | 14 | 0 | 0.0 | 0.0 | 0.00 | 0.00 | 0.00 | 99 | 1012.9 |
| 20260901190009 | 15 | 0 | 0.0 | 0.0 | 0.00 | 0.00 | 0.00 | 98 | 1012.8 |
| 20260901185009 | 15 | 0 | 0.0 | 0.0 | 0.00 | 0.00 | 0.00 | 96 | 1012.6 |
| 20260901184010 | 15 | 0 | 0.0 | 0.0 | 0.00 | 0.00 | 0.00 | 95 | 1012.5 |
| 20260901183009 | 15 | 0 | 0.0 | 0.0 | 0.00 | 0.00 | 0.00 | 94 | 1012.2 |
| 20260901182009 | 16 | 181 | 0.0 | 1.6 | 0.00 | 0.00 | 0.00 | 92 | 1012.0 |
| 20260901181011 | 16 | 0 | 0.0 | 0.0 | 0.00 | 0.00 | 0.00 | 90 | 1012.0 |
| 20260901180009 | 17 | 0 | 0.0 | 0.0 | 0.00 | 0.00 | 0.00 | 89 | 1011.7 |
| 20260901175009 | 17 | 0 | 0.0 | 0.0 | 0.00 | 0.00 | 0.00 | 87 | 1011.7 |
| 20260901174009 | 18 | 0 | 0.0 | 0.0 | 0.00 | 0.00 | 0.00 | 84 | 1011.5 |
| 20260901173010 | 18 | 0 | 0.0 | 0.0 | 0.00 | 0.00 | 0.00 | 81 | 1011.5 |
| 20260901172009 | 19 | 0 | 0.0 | 0.0 | 0.00 | 0.00 | 0.00 | 78 | 1011.3 |
| 20260901171009 | 20 | 0 | 0.0 | 0.0 | 0.00 | 0.00 | 0.00 | 75 | 1011.3 |
| 20260901170010 | 20 | 225 | 0.0 | 3.2 | 0.00 | 0.00 | 0.00 | 72 | 1011.2 |
| 20260901165010 | 21 | 12 | 0.0 | 4.8 | 0.00 | 0.00 | 0.00 | 70 | 1011.2 |
| 20260901164009 | 21 | 343 | 0.0 | 6.4 | 0.00 | 0.00 | 0.00 | 69 | 1011.2 |
| 20260901163010 | 21 | 345 | 0.0 | 6.4 | 0.00 | 0.00 | 0.00 | 70 | 1011.1 |
| 20260901162011 | 21 | 309 | 1.6 | 4.8 | 0.00 | 0.00 | 0.00 | 70 | 1011.0 |
| 20260901161009 | 21 | 343 | 0.0 | 3.2 | 0.00 | 0.00 | 0.00 | 72 | 1011.1 |
| 20260901160011 | 21 | 323 | 0.0 | 3.2 | 0.00 | 0.00 | 0.00 | 71 | 1011.0 |
| 20260901155009 | 21 | 115 | 0.0 | 4.8 | 0.00 | 0.00 | 0.00 | 70 | 1011.0 |
| 20260901154009 | 22 | 340 | 3.2 | 9.7 | 0.00 | 0.00 | 0.00 | 69 | 1011.1 |
| 20260901153009 | 22 | 323 | 0.0 | 9.7 | 0.00 | 0.00 | 0.00 | 67 | 1011.0 |
| 20260901152009 | 22 | 330 | 1.6 | 12.9 | 0.00 | 0.00 | 0.00 | 66 | 1010.8 |
| 20260901151009 | 23 | 358 | 1.6 | 8.0 | 0.00 | 0.00 | 0.00 | 65 | 1010.9 |
| 20260901150009 | 22 | 357 | 3.2 | 12.9 | 0.00 | 0.00 | 0.00 | 65 | 1011.0 |
| 20260901145009 | 22 | 344 | 0.0 | 4.8 | 0.00 | 0.00 | 0.00 | 67 | 1010.9 |
| 20260901144009 | 22 | 339 | 1.6 | 6.4 | 0.00 | 0.00 | 0.00 | 67 | 1011.0 |
| 20260901143009 | 22 | 2 | 1.6 | 6.4 | 0.00 | 0.00 | 0.00 | 67 | 1011.0 |
| 20260901142009 | 23 | 27 | 0.0 | 6.4 | 0.00 | 0.00 | 0.00 | 66 | 1011.0 |
| 20260901141010 | 22 | 95 | 0.0 | 4.8 | 0.00 | 0.00 | 0.00 | 70 | 1011.1 |
| 20260901140010 | 22 | 17 | 0.0 | 4.8 | 0.00 | 0.00 | 0.00 | 68 | 1011.1 |
| 20260901135008 | 22 | 326 | 1.6 | 9.7 | 0.00 | 0.00 | 0.00 | 67 | 1011.1 |
| 20260901134009 | 22 | 355 | 0.0 | 9.7 | 0.00 | 0.00 | 0.00 | 69 | 1011.2 |
| 20260901133009 | 22 | 337 | 3.2 | 6.4 | 0.00 | 0.00 | 0.00 | 67 | 1011.2 |
| 20260901132008 | 23 | 329 | 0.0 | 11.3 | 0.00 | 0.00 | 0.00 | 66 | 1011.2 |
| 20260901131009 | 22 | 354 | 3.2 | 11.3 | 0.00 | 0.00 | 0.00 | 65 | 1011.2 |
| 20260901130009 | 22 | 11 | 6.4 | 11.3 | 0.00 | 0.00 | 0.00 | 67 | 1011.2 |
| 20260901125009 | 22 | 333 | 1.6 | 12.9 | 0.00 | 0.00 | 0.00 | 69 | 1011.5 |
| 20260901124009 | 22 | 2 | 0.0 | 14.5 | 0.00 | 0.00 | 0.00 | 67 | 1011.7 |